| time (UTC) | temp F | wind direction | speed knots | gust knots | rain 1hr in | rain 24hr in | rain mn in | humidity % | barometer mb |
| 20260905112726 | 86 | 357 | 2.6 | 4.3 | 0.00 | 0.04 | 0.04 | 62 | 1019.2 |
| 20260905111826 | 87 | 4 | 1.7 | 4.3 | 0.00 | 0.04 | 0.04 | 62 | 1019.1 |
| 20260905110926 | 87 | 15 | 1.7 | 3.5 | 0.00 | 0.04 | 0.04 | 62 | 1019.1 |
| 20260905110026 | 87 | 347 | 1.7 | 4.3 | 0.00 | 0.04 | 0.04 | 61 | 1019.2 |
| 20260905105126 | 87 | 328 | 0.9 | 3.5 | 0.00 | 0.04 | 0.04 | 62 | 1019.2 |
| 20260905104226 | 86 | 292 | 0.9 | 2.6 | 0.00 | 0.04 | 0.04 | 62 | 1019.0 |
| 20260905103326 | 86 | 280 | 0.9 | 2.6 | 0.00 | 0.04 | 0.04 | 63 | 1019.2 |
| 20260905102447 | 86 | 250 | 0.9 | 2.6 | 0.00 | 0.04 | 0.04 | 64 | 1019.0 |
| 20260905101526 | 85 | 224 | 1.7 | 3.5 | 0.00 | 0.04 | 0.04 | 64 | 1019.0 |
| 20260905100647 | 85 | 205 | 1.7 | 3.5 | 0.00 | 0.04 | 0.04 | 63 | 1019.0 |
| 20260905095726 | 85 | 175 | 1.7 | 4.3 | 0.00 | 0.04 | 0.04 | 63 | 1018.8 |
| 20260905094847 | 85 | 125 | 1.7 | 5.2 | 0.00 | 0.04 | 0.04 | 63 | 1018.7 |
| 20260905093947 | 84 | 88 | 1.7 | 7.0 | 0.00 | 0.04 | 0.04 | 64 | 1018.6 |
| 20260905093026 | 84 | 36 | 0.9 | 3.5 | 0.00 | 0.04 | 0.04 | 64 | 1018.5 |
| 20260905092126 | 84 | 14 | 2.6 | 4.3 | 0.00 | 0.04 | 0.04 | 64 | 1018.4 |
| 20260905091226 | 84 | 30 | 2.6 | 5.2 | 0.00 | 0.04 | 0.04 | 64 | 1018.4 |
| 20260905090326 | 84 | 3 | 2.6 | 4.3 | 0.01 | 0.04 | 0.04 | 65 | 1018.3 |
| 20260905085425 | 83 | 354 | 2.6 | 4.3 | 0.03 | 0.04 | 0.04 | 65 | 1018.3 |
| 20260905084525 | 81 | 314 | 1.7 | 4.3 | 0.03 | 0.04 | 0.04 | 69 | 1018.1 |
| 20260905083625 | 81 | 339 | 1.7 | 5.2 | 0.03 | 0.04 | 0.04 | 70 | 1018.1 |
| 20260905082726 | 81 | 349 | 4.3 | 6.1 | 0.03 | 0.04 | 0.04 | 71 | 1018.0 |
| 20260905081825 | 82 | 54 | 4.3 | 8.7 | 0.03 | 0.04 | 0.04 | 67 | 1017.9 |
| 20260905080925 | 82 | 65 | 1.7 | 7.0 | 0.04 | 0.04 | 0.04 | 67 | 1018.4 |
| 20260905080025 | 83 | 115 | 1.7 | 3.5 | 0.02 | 0.02 | 0.02 | 64 | 1019.0 |
| 20260905075125 | 82 | 32 | 2.6 | 3.5 | 0.01 | 0.01 | 0.01 | 63 | 1018.8 |
| 20260905074225 | 82 | 33 | 2.6 | 4.3 | 0.01 | 0.01 | 0.01 | 64 | 1018.5 |
| 20260905073325 | 83 | 360 | 3.5 | 7.0 | 0.01 | 0.01 | 0.01 | 63 | 1018.4 |
| 20260905072425 | 85 | 352 | 1.7 | 6.1 | 0.01 | 0.01 | 0.01 | 61 | 1018.5 |
| 20260905071525 | 85 | 353 | 2.6 | 4.3 | 0.00 | 0.00 | 0.00 | 57 | 1018.4 |
| 20260905070626 | 85 | 352 | 3.5 | 7.0 | 0.00 | 0.00 | 0.00 | 57 | 1018.2 |
| 20260905065725 | 85 | 330 | 3.5 | 7.0 | 0.00 | 0.00 | 0.00 | 58 | 1018.2 |
| 20260905064825 | 84 | 333 | 2.6 | 7.8 | 0.00 | 0.00 | 0.00 | 59 | 1018.2 |
| 20260905063925 | 85 | 313 | 1.7 | 5.2 | 0.00 | 0.00 | 0.00 | 59 | 1018.0 |
| 20260905063025 | 84 | 304 | 1.7 | 3.5 | 0.00 | 0.00 | 0.00 | 60 | 1017.7 |
| 20260905062125 | 84 | 280 | 2.6 | 5.2 | 0.00 | 0.00 | 0.00 | 60 | 1017.5 |
| 20260905061225 | 84 | 269 | 3.5 | 8.7 | 0.00 | 0.00 | 0.00 | 61 | 1017.7 |
| 20260905060325 | 84 | 267 | 2.6 | 8.7 | 0.00 | 0.00 | 0.00 | 61 | 1017.6 |
| 20260905055425 | 84 | 279 | 4.3 | 7.0 | 0.00 | 0.00 | 0.00 | 63 | 1017.6 |
| 20260905054525 | 84 | 271 | 3.5 | 8.7 | 0.00 | 0.00 | 0.00 | 63 | 1017.6 |
| 20260905053625 | 84 | 273 | 0.9 | 8.7 | 0.00 | 0.00 | 0.00 | 64 | 1017.5 |
| 20260905052725 | 84 | 39 | 1.7 | 2.6 | 0.00 | 0.00 | 0.00 | 64 | 1016.6 |
| 20260905051846 | 84 | 49 | 1.7 | 4.3 | 0.00 | 0.00 | 0.00 | 64 | 1016.5 |
| 20260905050925 | 84 | 33 | 2.6 | 4.3 | 0.00 | 0.00 | 0.00 | 64 | 1016.5 |
| 20260905050025 | 84 | 25 | 1.7 | 5.2 | 0.00 | 0.00 | 0.00 | 64 | 1016.4 |
| 20260905045125 | 84 | 10 | 1.7 | 3.5 | 0.00 | 0.00 | 0.00 | 64 | 1016.4 |
| 20260905044225 | 85 | 44 | 2.6 | 5.2 | 0.00 | 0.00 | 0.00 | 63 | 1016.4 |
| 20260905043325 | 85 | 31 | 1.7 | 5.2 | 0.00 | 0.00 | 0.00 | 62 | 1016.1 |
| 20260905042425 | 85 | 37 | 1.7 | 2.6 | 0.00 | 0.00 | 0.00 | 63 | 1016.1 |
| 20260905041525 | 85 | 39 | 1.7 | 3.5 | 0.00 | 0.00 | 0.00 | 63 | 1016.1 |
| 20260905040625 | 85 | 65 | 3.5 | 5.2 | 0.00 | 0.00 | 0.00 | 63 | 1016.1 |
| 20260905035725 | 86 | 73 | 2.6 | 7.0 | 0.00 | 0.00 | 0.00 | 62 | 1016.0 |
| 20260905034825 | 86 | 69 | 2.6 | 5.2 | 0.00 | 0.00 | 0.00 | 61 | 1016.1 |
| 20260905033925 | 86 | 40 | 2.6 | 6.1 | 0.00 | 0.00 | 0.00 | 62 | 1015.9 |
| 20260905033046 | 86 | 38 | 1.7 | 4.3 | 0.00 | 0.00 | 0.00 | 62 | 1015.7 |
| 20260905032125 | 86 | 28 | 1.7 | 3.5 | 0.00 | 0.00 | 0.00 | 62 | 1015.8 |
| 20260905031225 | 86 | 21 | 1.7 | 4.3 | 0.00 | 0.00 | 0.00 | 62 | 1015.7 |
| 20260905030325 | 86 | 278 | 0.9 | 2.6 | 0.00 | 0.00 | 0.00 | 63 | 1015.9 |
| 20260905025424 | 86 | 265 | 0.0 | 0.9 | 0.00 | 0.00 | 0.00 | 63 | 1016.2 |
| 20260905024524 | 85 | 263 | 1.7 | 1.7 | 0.00 | 0.00 | 0.00 | 63 | 1016.3 |
| 20260905023645 | 85 | 253 | 1.7 | 7.0 | 0.00 | 0.00 | 0.00 | 64 | 1016.4 |
| 20260905022724 | 86 | 302 | 0.9 | 2.6 | 0.00 | 0.00 | 0.00 | 63 | 1016.3 |
| 20260905021845 | 86 | 269 | 0.9 | 2.6 | 0.00 | 0.00 | 0.00 | 63 | 1016.1 |
| 20260905020924 | 86 | 286 | 0.9 | 4.3 | 0.00 | 0.00 | 0.00 | 62 | 1016.5 |
| 20260905020024 | 86 | 236 | 1.7 | 2.6 | 0.00 | 0.00 | 0.00 | 62 | 1016.3 |
| 20260905015145 | 86 | 253 | 1.7 | 4.3 | 0.00 | 0.00 | 0.00 | 62 | 1016.5 |
| 20260905014224 | 87 | 237 | 1.7 | 3.5 | 0.00 | 0.00 | 0.00 | 60 | 1016.2 |
| 20260905013324 | 87 | 180 | 1.7 | 6.1 | 0.00 | 0.00 | 0.00 | 59 | 1016.3 |
| 20260905012424 | 87 | 191 | 2.6 | 5.2 | 0.00 | 0.00 | 0.00 | 59 | 1016.5 |
| 20260905011524 | 87 | 182 | 2.6 | 6.1 | 0.00 | 0.00 | 0.00 | 59 | 1016.4 |
| 20260905010645 | 86 | 173 | 1.7 | 5.2 | 0.00 | 0.00 | 0.00 | 60 | 1016.4 |
| 20260905005724 | 86 | 173 | 2.6 | 3.5 | 0.00 | 0.00 | 0.00 | 61 | 1016.3 |
| 20260905004824 | 86 | 243 | 1.7 | 6.1 | 0.00 | 0.00 | 0.00 | 62 | 1016.5 |
| 20260905003924 | 86 | 101 | 1.7 | 3.5 | 0.00 | 0.00 | 0.00 | 60 | 1016.6 |
| 20260905003045 | 86 | 101 | 0.9 | 2.6 | 0.00 | 0.00 | 0.00 | 61 | 1016.7 |
| 20260905002124 | 86 | 159 | 2.6 | 3.5 | 0.00 | 0.00 | 0.00 | 61 | 1016.6 |
| 20260905001224 | 86 | 234 | 3.5 | 7.8 | 0.00 | 0.00 | 0.00 | 61 | 1017.1 |
| 20260905000325 | 87 | 225 | 2.6 | 7.8 | 0.00 | 0.00 | 0.00 | 60 | 1017.3 |
| 20260904235445 | 88 | 203 | 3.5 | 7.0 | 0.00 | 0.00 | 0.00 | 58 | 1016.9 |
| 20260904234525 | 89 | 161 | 4.3 | 9.6 | 0.00 | 0.00 | 0.00 | 57 | 1016.8 |
| 20260904233624 | 90 | 112 | 3.5 | 9.6 | 0.00 | 0.00 | 0.00 | 56 | 1016.3 |
| 20260904232724 | 90 | 72 | 1.7 | 6.1 | 0.00 | 0.00 | 0.00 | 54 | 1016.4 |
| 20260904231824 | 90 | 101 | 2.6 | 6.1 | 0.00 | 0.00 | 0.00 | 51 | 1016.8 |
| 20260904230924 | 90 | 226 | 0.9 | 4.3 | 0.00 | 0.00 | 0.00 | 52 | 1016.8 |
| 20260904230024 | 90 | 213 | 0.9 | 1.7 | 0.00 | 0.00 | 0.00 | 53 | 1016.6 |
| 20260904225124 | 90 | 223 | 3.5 | 4.3 | 0.00 | 0.00 | 0.00 | 53 | 1016.8 |
| 20260904224224 | 90 | 294 | 4.3 | 7.8 | 0.00 | 0.00 | 0.00 | 54 | 1016.6 |
| 20260904223324 | 90 | 245 | 3.5 | 9.6 | 0.00 | 0.00 | 0.00 | 53 | 1016.8 |
| 20260904222424 | 91 | 247 | 2.6 | 7.8 | 0.00 | 0.00 | 0.00 | 50 | 1016.4 |
| 20260904221524 | 91 | 337 | 2.6 | 6.1 | 0.00 | 0.00 | 0.00 | 53 | 1016.3 |
| 20260904220624 | 92 | 207 | 2.6 | 7.8 | 0.00 | 0.00 | 0.00 | 52 | 1017.2 |
| 20260904215724 | 94 | 285 | 1.7 | 5.2 | 0.00 | 0.00 | 0.00 | 46 | 1016.9 |
| 20260904214824 | 94 | 22 | 1.7 | 4.3 | 0.00 | 0.00 | 0.00 | 44 | 1016.6 |
| 20260904213924 | 93 | 2 | 1.7 | 4.3 | 0.00 | 0.00 | 0.00 | 45 | 1016.2 |
| 20260904213024 | 92 | 58 | 2.6 | 7.0 | 0.00 | 0.00 | 0.00 | 48 | 1016.2 |
| 20260904212145 | 92 | 67 | 0.9 | 7.0 | 0.00 | 0.00 | 0.00 | 50 | 1016.3 |
| 20260904211245 | 92 | 256 | 1.7 | 3.5 | 0.00 | 0.00 | 0.00 | 50 | 1016.9 |
| 20260904210323 | 92 | 235 | 2.6 | 5.2 | 0.00 | 0.00 | 0.00 | 50 | 1017.0 |
| 20260904205424 | 93 | 234 | 3.5 | 6.1 | 0.00 | 0.00 | 0.00 | 48 | 1016.9 |
| 20260904204523 | 94 | 246 | 2.6 | 7.8 | 0.00 | 0.00 | 0.00 | 45 | 1017.1 |
| 20260904203623 | 95 | 291 | 1.7 | 3.5 | 0.00 | 0.00 | 0.00 | 43 | 1016.8 |
| 20260904202723 | 95 | 305 | 1.7 | 7.0 | 0.00 | 0.00 | 0.00 | 43 | 1016.6 |
| 20260904201823 | 95 | 320 | 2.6 | 7.0 | 0.00 | 0.00 | 0.00 | 43 | 1016.4 |
| 20260904200923 | 95 | 332 | 3.5 | 5.2 | 0.00 | 0.00 | 0.00 | 43 | 1016.3 |
| 20260904200023 | 95 | 327 | 3.5 | 7.8 | 0.00 | 0.00 | 0.00 | 42 | 1016.2 |
| 20260904195123 | 96 | 350 | 3.5 | 7.0 | 0.00 | 0.00 | 0.00 | 42 | 1016.1 |
| 20260904194223 | 96 | 354 | 3.5 | 7.0 | 0.00 | 0.00 | 0.00 | 43 | 1016.0 |
| 20260904193323 | 96 | 333 | 4.3 | 9.6 | 0.00 | 0.00 | 0.00 | 43 | 1016.0 |
| 20260904192423 | 96 | 331 | 3.5 | 8.7 | 0.00 | 0.00 | 0.00 | 43 | 1015.9 |
| 20260904191544 | 96 | 321 | 4.3 | 9.6 | 0.00 | 0.00 | 0.00 | 45 | 1015.9 |
| 20260904190623 | 96 | 313 | 4.3 | 11.3 | 0.00 | 0.00 | 0.00 | 45 | 1015.8 |
| 20260904185723 | 95 | 309 | 4.3 | 9.6 | 0.00 | 0.00 | 0.00 | 45 | 1015.8 |
| 20260904184823 | 95 | 303 | 3.5 | 13.0 | 0.00 | 0.00 | 0.00 | 46 | 1015.8 |
| 20260904183923 | 96 | 289 | 3.5 | 9.6 | 0.00 | 0.00 | 0.00 | 47 | 1015.9 |
| 20260904183023 | 96 | 293 | 5.2 | 10.4 | 0.00 | 0.00 | 0.00 | 47 | 1016.0 |
| 20260904182123 | 96 | 270 | 5.2 | 15.6 | 0.00 | 0.00 | 0.00 | 47 | 1016.0 |
| 20260904181223 | 95 | 269 | 2.6 | 11.3 | 0.00 | 0.00 | 0.00 | 50 | 1016.0 |
| 20260904180323 | 94 | 236 | 2.6 | 5.2 | 0.00 | 0.00 | 0.00 | 59 | 1016.0 |
| 20260904175423 | 94 | 224 | 4.3 | 7.8 | 0.00 | 0.00 | 0.00 | 59 | 1016.0 |
| 20260904174524 | 95 | 222 | 5.2 | 9.6 | 0.00 | 0.00 | 0.00 | 58 | 1016.0 |
| 20260904173623 | 96 | 221 | 5.2 | 9.6 | 0.00 | 0.00 | 0.00 | 56 | 1015.9 |
| 20260904172723 | 96 | 213 | 5.2 | 11.3 | 0.00 | 0.00 | 0.00 | 53 | 1015.8 |
| 20260904171823 | 96 | 215 | 5.2 | 11.3 | 0.00 | 0.00 | 0.00 | 52 | 1015.8 |
| 20260904170923 | 97 | 221 | 4.3 | 8.7 | 0.00 | 0.00 | 0.00 | 53 | 1015.8 |
| 20260904170044 | 98 | 215 | 4.3 | 8.7 | 0.00 | 0.00 | 0.00 | 53 | 1015.8 |
| 20260904165123 | 99 | 210 | 4.3 | 8.7 | 0.00 | 0.00 | 0.00 | 52 | 1015.9 |
| 20260904164223 | 100 | 221 | 4.3 | 8.7 | 0.00 | 0.00 | 0.00 | 51 | 1015.9 |
| 20260904163323 | 100 | 216 | 3.5 | 7.8 | 0.00 | 0.00 | 0.00 | 50 | 1016.0 |
| 20260904162423 | 102 | 239 | 1.7 | 7.8 | 0.00 | 0.00 | 0.00 | 46 | 1015.8 |
| 20260904161523 | 104 | 262 | 1.7 | 5.2 | 0.00 | 0.00 | 0.00 | 41 | 1015.9 |
| 20260904160623 | 103 | 264 | 1.7 | 6.1 | 0.00 | 0.00 | 0.00 | 38 | 1016.0 |
| 20260904155744 | 102 | 276 | 2.6 | 7.0 | 0.00 | 0.00 | 0.00 | 39 | 1016.0 |
| 20260904154823 | 103 | 302 | 1.7 | 4.3 | 0.00 | 0.00 | 0.00 | 39 | 1016.2 |
| 20260904153944 | 102 | 310 | 1.7 | 6.1 | 0.00 | 0.00 | 0.00 | 39 | 1016.2 |
| 20260904153023 | 102 | 275 | 1.7 | 5.2 | 0.00 | 0.00 | 0.00 | 40 | 1016.3 |
| 20260904152122 | 102 | 307 | 2.6 | 5.2 | 0.00 | 0.00 | 0.00 | 40 | 1016.4 |
| 20260904151223 | 101 | 250 | 2.6 | 6.1 | 0.00 | 0.00 | 0.00 | 42 | 1016.6 |
| 20260904150323 | 101 | 272 | 1.7 | 6.1 | 0.00 | 0.00 | 0.00 | 42 | 1016.6 |
| 20260904145423 | 100 | 271 | 2.6 | 3.5 | 0.00 | 0.00 | 0.00 | 43 | 1016.6 |
| 20260904144544 | 100 | 288 | 0.9 | 6.1 | 0.00 | 0.00 | 0.00 | 44 | 1016.8 |
| 20260904143622 | 99 | 355 | 1.7 | 3.5 | 0.00 | 0.00 | 0.00 | 45 | 1016.9 |
| 20260904142722 | 99 | 265 | 1.7 | 5.2 | 0.00 | 0.00 | 0.00 | 44 | 1017.2 |
| 20260904141822 | 98 | 298 | 1.7 | 2.6 | 0.00 | 0.00 | 0.00 | 47 | 1017.4 |
| 20260904140922 | 97 | 287 | 1.7 | 6.1 | 0.00 | 0.00 | 0.00 | 49 | 1017.5 |
| 20260904140022 | 97 | 313 | 1.7 | 6.1 | 0.00 | 0.00 | 0.00 | 49 | 1017.7 |
| 20260904135122 | 96 | 246 | 1.7 | 4.3 | 0.00 | 0.00 | 0.00 | 51 | 1017.8 |
| 20260904134222 | 95 | 232 | 2.6 | 4.3 | 0.00 | 0.00 | 0.00 | 51 | 1018.0 |
| 20260904133322 | 94 | 244 | 2.6 | 6.1 | 0.00 | 0.00 | 0.00 | 52 | 1018.2 |
| 20260904132422 | 94 | 273 | 1.7 | 5.2 | 0.00 | 0.00 | 0.00 | 52 | 1018.1 |
| 20260904131522 | 93 | 79 | 1.7 | 4.3 | 0.00 | 0.00 | 0.00 | 53 | 1018.1 |
| 20260904130643 | 93 | 146 | 1.7 | 6.1 | 0.00 | 0.00 | 0.00 | 54 | 1018.2 |
| 20260904125722 | 92 | 210 | 1.7 | 3.5 | 0.00 | 0.00 | 0.00 | 55 | 1018.5 |
| 20260904124822 | 92 | 238 | 1.7 | 3.5 | 0.00 | 0.00 | 0.00 | 56 | 1018.7 |
| 20260904123922 | 92 | 279 | 1.7 | 5.2 | 0.00 | 0.00 | 0.00 | 56 | 1018.6 |
| 20260904123022 | 92 | 293 | 0.9 | 2.6 | 0.00 | 0.00 | 0.00 | 56 | 1018.8 |
| 20260904122143 | 91 | 187 | 0.9 | 2.6 | 0.00 | 0.00 | 0.00 | 57 | 1019.0 |
| 20260904121222 | 90 | 174 | 0.9 | 3.5 | 0.00 | 0.00 | 0.00 | 58 | 1019.2 |
| 20260904120322 | 89 | 203 | 0.9 | 4.3 | 0.00 | 0.00 | 0.00 | 61 | 1019.2 |
| 20260904115422 | 87 | 178 | 1.7 | 2.6 | 0.00 | 0.00 | 0.00 | 63 | 1019.4 |
| 20260904114522 | 87 | 223 | 1.7 | 3.5 | 0.00 | 0.00 | 0.00 | 64 | 1019.3 |
| 20260904113622 | 86 | 219 | 1.7 | 4.3 | 0.00 | 0.00 | 0.00 | 66 | 1019.5 |